Schedule Details

Flight Number: ASXC27
Departure: Heydar Aliyev International Airport BAKU (UBBB) at 16:00
Arrival: Kathmandu (VNKT) at 21:15
Route: ABROL L850 DUKAN B449 DOLOS B475 UTAM A909 LEMOD/N0440F330 N644 REGET J145 DI M875 JHANG A466 SAMAR M890 CHG W35 ONOGI M890 SP/N0451F350 M890 JAL R594 LKN G598 PARSA SMR

Weather Information
UBBB 251930Z 20010KT 9999 OVC025 09/07 Q1008 R88/CLRD// NOSIG
VNKT 251850Z VRB02KT 7000 FEW015 BKN100 14/05 Q1018 NOSIG

Schedule Frequency

Route Map